Location: Sungai Bunut
(2.6333°N, 113.7333°E)
Time: 09:53:49
(UTC+00:00)

Transit 2A Rocket - Pass Details

Date: 03 December 2023
Orbit: 590 x 905 km, 66.7° (Epoch: 01 March)

Event Time Altitude Azimuth Distance (km) Brightness Sun altitude
Rises 11:12:22 0° 163° (SSE) 3,367 8.4 -14.3°
Reaches altitude 10° 11:16:46 10° 131° (SE) 2,350 7.3 -15.3°
Enters shadow 11:18:13 11° 116° (ESE) 2,217 7.0 -15.7°
Maximum altitude 11:18:31 12° 112° (ESE) 2,208 - -15.8°
Drops below altitude 10° 11:20:13 10° 93° (E) 2,278 - -16.1°
Sets 11:24:15 0° 60° (ENE) 3,110 - -17.1°
